[ hide orbit diagram ]
For accurate long-term ephemerides, please instead use our Horizons system.This orbit viewer was implemented using two-body methods, and hence should not be used for determining accurate long-term trajectories (over several years or decades) or planetary encounter circumstances.
Orbital Elements at Epoch 2459000.5 (2020-May-31.0) TDB
Reference: JPL 12 (heliocentric ecliptic J2000)
Element | Value | Uncertainty (1-sigma) | Units |
e | .1160579606806322 | 6.1646e-08 | |
a | 2.566577949661516 | 2.7177e-08 | au |
q | 2.268706146895922 | 1.6583e-07 | au |
i | 8.678659503352753 | 7.0672e-06 | deg |
node | 42.34113032584954 | 5.2757e-05 | deg |
peri | 184.1332211661159 | 6.5823e-05 | deg |
M | 227.7737954471868 | 4.526e-05 | deg |
tp | 2459552.126531629770 (2021-Dec-03.62653163) | 0.00019405 | TDB |
period | 1501.862297706647 4.11 | 2.3854e-05 6.531e-08 | d yr |
n | .2397024018445114 | 3.8072e-09 | deg/d |
Q | 2.86444975242711 | 3.0331e-08 | au |
|
| | Orbit Determination Parameters
Additional Information
|
[ hide covariance matrix ]
Orbital Elements at Epoch 2457192.5 (2015-Jun-19.0) TDB
Reference: JPL 12 (heliocentric ecliptic J2000)
Element | Value | Uncertainty (1-sigma) | Units |
e | .1164740199130541 | 6.1417e-08 | |
q | 2.267117787326929 | 1.6513e-07 | au |
tp | 2456550.694297899142 (2013-Sep-15.19429790) | 0.00016941 | TDB |
node | 42.3492420619698 | 5.2764e-05 | deg |
peri | 184.4850578946096 | 6.5857e-05 | deg |
i | 8.679381371814268 | 7.0686e-06 | deg |
|
| | Orbit Determination Parameters
Additional Information
|
Orbit Covariance (6×6)
|
|
e |
q |
tp |
node |
peri |
i |
e |
3.772079414206171E-15 |
-1.004128385698177E-14 |
-3.438118541262004E-12 |
-4.686783270073214E-14 |
-8.048007552422984E-13 |
2.806958356124481E-15 |
q |
-1.004128385698177E-14 |
2.726812118187631E-14 |
1.049221170287167E-11 |
1.335319599865534E-13 |
2.492265392673608E-12 |
-6.87258620198674E-15 |
tp |
-3.438118541262004E-12 |
1.049221170287167E-11 |
2.869875638855414E-8 |
1.947074144976557E-10 |
6.751765204758794E-9 |
-1.742311675010437E-11 |
node |
-4.686783270073214E-14 |
1.335319599865534E-13 |
1.947074144976557E-10 |
2.78404900254732E-9 |
-2.704922346195688E-9 |
-9.245926942799481E-11 |
peri |
-8.048007552422984E-13 |
2.492265392673608E-12 |
6.751765204758794E-9 |
-2.704922346195688E-9 |
4.337093770436952E-9 |
8.739547360677504E-11 |
i |
2.806958356124481E-15 |
-6.87258620198674E-15 |
-1.742311675010437E-11 |
-9.245926942799481E-11 |
8.739547360677504E-11 |
4.996533654205082E-11 |
|
Physical Parameter Table
Parameter |
Symbol |
Value |
Units |
Sigma |
Reference |
Notes |
absolute magnitude |
H |
17.0 |
|
n/a |
MPO455582 |
|
|
357633 (2005 GP6) Discovered 2005-Apr-01 by Spacewatch at Kitt Peak |
Reference: 20130327/Numbers.arc | Last Updated: 2013-03-29 |
|
[ show close-approach data ]
|